Location: Newark
(25.0000°N, 73.5000°E)
Time: 18:27:53
(UTC+00:00)

Altair - Pass Details

Date: 02 March 2021
Orbit: 1501 x 1683 km, 47.2° (Epoch: 10 April)

Event Time Altitude Azimuth Distance (km) Brightness Sun altitude
Rises 11:10:21 0° 197° (SSW) 4,636 10.6 25.1°
Reaches altitude 10° 11:13:45 10° 188° (S) 3,646 10.0 24.4°
Maximum altitude 11:21:40 34° 127° (SE) 2,283 8.4 22.7°
Drops below altitude 10° 11:29:37 10° 67° (ENE) 3,671 9.0 21.0°
Sets 11:33:01 0° 59° (ENE) 4,671 9.4 20.3°
